MOLNIYA 2-9

Last updated on Nov. 15, 2019, 4:21 a.m. UTC

1 07276U 74026A   19318.23790194 -.00000053  00000-0 -14231-2 0  9991
2 07276  63.8093  16.9503 6841690 288.9909  12.2681  2.45096604226192
UTC
Height (km)
Latitude
Longitude
Inclination
Orbital Period
UTC large
Height (km)
Speed (km/s)
/
Latitude / Longitude
Inclination (degrees)
Orbital Period (minutes)
Azimuth
Elevation
Range (km)
Doppler Factor
iOS Compass Heading
iOS Angle

Next 30 passes for location: Hong Kong

Rise time Rise Azimuth (degrees) Set time Set Azimuth (degrees) Duration Max altitude (degrees)

No matching passes for this satellites